TimePDT,TemperatureF,Dew PointF,Humidity,Sea Level PressureIn,VisibilityMPH,Wind Direction,Wind SpeedMPH,Gust SpeedMPH,PrecipitationIn,Events,Conditions,WindDirDegrees,DateUTC
12:56 AM,55.9,44.1,64,29.97,10.0,WNW,4.6,-,N/A,,Clear,300,2013-04-22 07:56:00
1:56 AM,57.0,46.9,69,29.95,10.0,Calm,Calm,-,N/A,,Clear,0,2013-04-22 08:56:00
2:56 AM,55.0,44.1,67,29.94,10.0,Calm,Calm,-,N/A,,Clear,0,2013-04-22 09:56:00
3:56 AM,54.0,44.1,69,29.94,10.0,SW,8.1,-,N/A,,Clear,220,2013-04-22 10:56:00
4:56 AM,57.0,46.0,67,29.94,10.0,Calm,Calm,-,N/A,,Clear,0,2013-04-22 11:56:00
5:56 AM,55.9,43.0,62,29.94,10.0,Calm,Calm,-,N/A,,Partly Cloudy,0,2013-04-22 12:56:00
6:56 AM,55.9,44.1,64,29.95,10.0,Calm,Calm,-,N/A,,Clear,0,2013-04-22 13:56:00
7:56 AM,61.0,48.0,62,29.97,10.0,Calm,Calm,-,N/A,,Clear,0,2013-04-22 14:56:00
8:56 AM,64.0,48.9,58,29.97,10.0,Calm,Calm,-,N/A,,Clear,0,2013-04-22 15:56:00
9:56 AM,64.0,53.1,67,29.97,10.0,NNE,5.8,-,N/A,,Clear,20,2013-04-22 16:56:00
10:56 AM,66.9,54.0,63,29.98,10.0,North,3.5,-,N/A,,Clear,10,2013-04-22 17:56:00
11:56 AM,75.9,50.0,40,29.96,10.0,Calm,Calm,-,N/A,,Clear,0,2013-04-22 18:56:00
12:56 PM,81.0,41.0,24,29.94,10.0,Calm,Calm,-,N/A,,Clear,0,2013-04-22 19:56:00
1:56 PM,79.0,46.9,32,29.92,10.0,East,4.6,-,N/A,,Clear,90,2013-04-22 20:56:00
2:56 PM,82.0,45.0,27,29.90,10.0,WNW,13.8,-,N/A,,Clear,300,2013-04-22 21:56:00
3:56 PM,78.1,44.1,30,29.88,10.0,WNW,18.4,-,N/A,,Clear,290,2013-04-22 22:56:00
4:56 PM,73.9,46.0,37,29.87,10.0,WNW,18.4,-,N/A,,Clear,300,2013-04-22 23:56:00
5:56 PM,71.1,46.0,41,29.87,10.0,WNW,17.3,-,N/A,,Clear,300,2013-04-23 00:56:00
6:56 PM,69.1,42.1,38,29.86,10.0,WNW,20.7,-,N/A,,Clear,290,2013-04-23 01:56:00
7:56 PM,66.9,41.0,39,29.87,10.0,WNW,11.5,-,N/A,,Clear,300,2013-04-23 02:56:00
8:56 PM,64.9,44.1,47,29.88,10.0,NW,10.4,-,N/A,,Clear,310,2013-04-23 03:56:00
9:56 PM,60.1,46.0,60,29.90,10.0,West,9.2,-,N/A,,Clear,260,2013-04-23 04:56:00
10:56 PM,57.0,46.0,67,29.89,10.0,West,6.9,-,N/A,,Clear,280,2013-04-23 05:56:00
11:56 PM,54.0,46.0,75,29.89,10.0,West,10.4,-,N/A,,Partly Cloudy,280,2013-04-23 06:56:00